Location: Karolów
(51.2599°N, 19.2365°E)
Time: 15:24:46
(UTC+00:00)

Daily predictions for brighter satellites

Satellite Brightness Start Highest point End
(mag) Time Altitude Azimuth Time Altitude Azimuth Time Altitude Azimuth
ATLAS 2AS CENTAUR R/B 2.7 18:44:12 10° SW 18:51:09 78° SE 18:57:58 10° NE
Cosmos 2100 Rocket 4.2 18:45:31 10° SSE 18:51:30 52° E 18:57:35 10° NNE
Ariane Rocket 4.3 18:53:12 10° ESE 18:57:16 25° ENE 19:01:22 10° N
ISS -1.8 18:56:57 10° SSE 18:58:16 12° SE 18:59:35 10° ESE
ADEOS 3.6 18:53:57 10° SSE 18:59:10 85° ENE 19:04:25 10° NNW
Cosmos 2322 Rocket 4.4 18:56:59 10° N 19:00:23 16° NNE 19:03:48 10° ENE
Spot 2 Rocket 3.6 18:58:01 10° SSE 19:02:56 61° ENE 19:07:54 10° N
Cosmos 2082 Rocket 3.6 19:00:53 10° SE 19:04:48 19° E 19:08:43 10° NE
Cosmos 2151 Rocket 3.5 19:02:53 10° S 19:07:15 86° E 19:11:39 10° NNE
SL-4 R/B 2.9 19:04:11 10° W 19:07:40 34° SSW 19:11:12 10° SE
Okean 2 Rocket 3.1 19:05:13 10° S 19:09:40 70° E 19:14:09 10° NNE
BREEZE-M DEB (TANK) 4.4 19:07:58 10° WSW 19:12:56 80° SSE 19:35:15 10° ENE
Cosmos 1536 Rocket 4.0 19:10:06 10° NNW 19:14:25 63° W 19:18:43 10° S
Cosmos 1371 Rocket 4.3 19:09:23 10° SSW 19:14:41 75° WNW 19:20:04 10° NNE
IRS-1A Rocket 4.5 19:09:48 10° SSE 19:15:36 86° WSW 19:21:33 10° NNW
Cosmos 292 Rocket 4.0 19:13:14 10° NNW 19:18:00 70° WSW 19:22:43 10° SSE
Tsikada Rocket 4.5 19:12:24 10° N 19:18:20 45° ENE 19:24:01 11° SE
CZ-4C R/B 2.1 19:18:43 10° S 19:22:37 40° ESE 19:27:32 10° NE
Cosmos 2228 3.9 19:19:24 11° SSE 19:22:51 28° E 19:26:23 10° NNE
Cosmos 1697 Rocket 3.3 19:18:25 10° NW 19:23:54 55° WSW 19:29:21 10° S
Cosmos 1725 Rocket 4.2 19:18:03 10° S 19:24:09 57° E 19:30:16 10° NNE
Okean O Rocket 1.5 19:20:39 10° SSE 19:24:57 85° ENE 19:29:16 10° NNW
USA 305 2.9 19:21:16 10° WNW 19:25:21 66° NNE 19:29:04 10° E
ATLAS 3B R/B 3.2 19:18:41 10° NW 19:26:26 67° SW 19:33:32 11° SSE
ERS-1 Rocket 4.0 19:22:17 10° S 19:27:05 46° W 19:31:55 10° NNW
Cosmos 1741 Rocket 4.1 19:22:16 10° NNW 19:27:38 89° WSW 19:32:45 11° SSE
SL-16 R/B 3.6 19:22:57 10° NNW 19:27:49 28° NE 19:32:39 10° E
Cosmos 1452 Rocket 3.7 19:23:48 10° S 19:28:48 48° ESE 19:33:49 10° NNE
Helios 1A Rocket 3.5 19:25:51 10° N 19:28:54 44° WNW 19:31:55 10° SW
USA 186 1.2 19:28:18 13° SSE 19:30:37 89° WSW 19:33:22 10° NNW
Cosmos 1867 4.0 19:25:48 10° SW 19:31:14 70° NW 19:36:43 10° NE
Okean-O 2.7 19:33:23 10° S 19:37:46 75° WSW 19:42:10 10° NNW
Cosmos 1331 Rocket 3.9 19:32:53 10° SSW 19:38:07 77° ESE 19:43:21 10° NNE
Cosmos 968 Rocket 4.3 19:33:24 10° NW 19:38:26 48° WSW 19:43:25 10° S
Cosmos 2333 Rocket 3.5 19:35:36 10° NNW 19:40:36 30° NE 19:45:36 10° ESE
Cosmos 1892 Rocket 3.5 19:38:05 10° N 19:42:28 88° WSW 19:46:26 12° S
CZ-4B R/B 3.6 19:39:17 15° SE 19:43:06 57° ENE 19:47:49 10° N
Cosmos 2016 Rocket 4.0 19:37:01 10° S 19:43:16 71° E 19:49:27 10° NNE
Cosmos 2173 Rocket 4.3 19:39:33 10° SSW 19:45:40 72° WNW 19:51:55 10° N
Cosmos 1302 Rocket 4.4 19:41:48 10° S 19:46:38 42° ESE 19:51:30 10° NE
USA 245 4.4 19:42:23 12° SSE 19:47:46 80° ENE 19:53:36 10° NNW
Cosmos 1455 Rocket 3.0 19:43:55 10° S 19:48:19 80° E 19:52:44 10° NNE
SL-08 R/B 3.8 19:45:51 10° N 19:50:42 66° WNW 19:55:27 10° SSW
Cosmos 2061 Rocket 4.2 19:44:57 11° SSE 19:50:46 53° E 19:56:50 10° NNE
Cosmos 1980 Rocket 2.4 19:46:24 10° NNW 19:52:05 71° WSW 19:56:48 15° SSE
Okean 1 Rocket 4.0 19:50:13 10° SSW 19:54:27 49° WNW 19:58:47 10° N
Cosmos 724 4.4 19:48:39 10° SSW 19:54:29 54° ESE 20:00:14 10° NE
SPOT 3 Rocket 3.5 19:53:56 15° SSE 19:58:14 88° ENE 20:03:24 10° NNW
CZ-4 R/B 4.2 19:59:04 10° WSW 19:59:58 11° W 20:00:54 10° WNW
CZ-4B R/B 2.3 19:58:30 20° SSE 20:00:40 87° WSW 20:04:04 10° NNW
Cosmos 1544 Rocket 4.4 19:58:36 20° SE 20:00:48 32° E 20:04:40 10° NNE
Cosmos 1782 2.4 19:59:06 13° S 20:02:10 86° ESE 20:05:43 10° N
Cosmos 1933 4.4 20:09:27 23° ESE 20:10:34 27° E 20:13:48 10° NNE
Cosmos 2084 Rocket 3.3 20:07:53 10° NW 20:12:06 86° NE 20:14:32 25° SE
Cosmos 1802 Rocket 4.3 20:06:02 10° SSW 20:12:11 66° WNW 20:18:19 10° N
Cosmos 1833 Rocket 4.1 20:07:07 10° WSW 20:12:25 42° NW 20:17:45 10° NNE
Terra 4.1 20:10:35 10° SW 20:14:01 20° W 20:17:29 10° NW
Cosmos 1758 Rocket 3.7 20:09:54 10° N 20:14:15 62° ENE 20:16:41 25° SSE
IRS-1C Rocket 4.1 20:10:56 19° SSE 20:14:52 85° WSW 20:20:11 10° NNW
Gbstr 26 Del rocket 3.7 20:12:18 10° WNW 20:16:56 40° SSW 20:18:53 25° SSE
Cosmos 2360 Rocket 3.4 20:13:03 10° NNW 20:18:10 33° NE 20:22:30 13° ESE
NOSS 3-3 (C) 4.3 20:15:34 18° S 20:18:48 35° ESE 20:24:18 10° NE
Helios 1B rocket 4.0 20:17:54 15° E 20:19:17 19° ENE 20:21:48 10° NNE
CZ-2C R/B 1.9 20:23:39 39° S 20:24:31 73° WSW 20:27:19 10° NNW
Cosmos 1743 4.3 20:23:59 10° NW 20:26:22 22° W 20:28:34 11° SW
Cosmos 2237 4.3 20:21:54 10° NNW 20:27:40 79° WSW 20:31:12 24° SSE
Geosat 4.3 20:24:41 10° NE 20:29:31 46° ESE 20:32:21 23° S
NOSS 3-4 (A) 4.2 20:25:53 10° NW 20:32:10 55° NE 20:38:37 14° ESE
NOSS 3-4 (C) 4.2 20:26:28 10° NW 20:32:47 55° NE 20:39:16 14° ESE
Cosmos 44 Rocket 3.7 20:28:00 10° SW 20:33:05 72° NW 20:38:18 10° NE
ISS -3.6 20:31:14 10° SW 20:34:27 46° SSE 20:35:05 40° ESE
Cosmos 2219 Rocket 3.6 20:30:46 10° NNW 20:35:42 30° NE 20:40:07 12° E
Ariane Rocket 3.4 20:32:21 20° S 20:35:48 59° WSW 20:40:50 10° NNW
Cosmos 1602 Rocket 3.6 20:35:40 10° N 20:39:56 65° ENE 20:41:43 33° SSE
ATLAS 2AS CENTAUR R/B 4.1 20:36:08 10° W 20:42:37 41° NNW 20:49:00 10° NE
Cosmos 2369 4.1 20:37:31 10° NW 20:43:06 56° WSW 20:46:24 24° S
Cosmos 2322 Rocket 2.8 20:40:22 10° NNW 20:45:51 48° NE 20:49:17 22° ESE
Cosmos 2082 Rocket 2.2 20:42:25 10° SSW 20:48:09 85° WNW 20:53:55 10° NNE
Cosmos 1437 Rocket 2.4 20:47:59 46° SSE 20:48:49 65° E 20:52:22 10° NNE
USA 305 2.7 20:46:49 10° WNW 20:50:41 46° SW 20:51:08 43° SSW
Cosmos 909 Rocket 3.9 20:44:47 10° SSW 20:51:05 76° SE 20:57:36 10° NE
Cosmos 1891 Rocket 4.4 20:46:58 22° S 20:51:08 81° E 20:57:13 10° NNE
Cosmos 2151 3.0 20:47:04 10° NNW 20:51:11 72° W 20:52:53 34° S
USA 234 3.8 20:47:24 10° ENE 20:53:13 33° SE 20:55:31 26° SSE
Meteor 1-5 Rocket 4.3 20:49:32 10° N 20:55:10 68° ENE 20:58:02 30° SSE
Cosmos 1626 Rocket 4.3 20:53:41 10° NNW 20:57:51 46° W 21:00:05 24° SSW
Cosmos 1607 4.0 20:53:24 10° SW 20:59:35 82° NW 21:05:54 10° NE
Okean O Rocket 4.2 20:59:53 10° WSW 21:01:45 12° W 21:03:36 10° WNW
Cosmos 2278 3.7 20:59:16 10° NNW 21:05:02 82° ENE 21:07:47 32° SE
Cosmos 1503 Rocket 4.5 21:01:17 10° NNW 21:06:24 52° ENE 21:08:48 29° ESE
Cosmos 1777 Rocket 4.2 21:01:35 10° NNW 21:06:49 65° ENE 21:09:08 33° SE
Okean 1-7 Rocket 3.5 21:03:54 10° N 21:08:21 77° ENE 21:09:50 42° SSE
Cosmos 1992 Rocket 4.1 21:05:58 16° SSW 21:10:10 75° WNW 21:15:25 10° NNE
IKONOS-2 4.4 21:06:33 10° NNE 21:10:41 70° ESE 21:11:49 45° S
CZ-4C R/B 3.1 21:06:21 10° WSW 21:10:43 45° NNW 21:16:24 10° NE
COSMOS 2406 3.1 21:07:29 23° SSW 21:11:13 76° ESE 21:16:58 10° NNE
Cosmos-2242 4.3 21:11:13 24° E 21:11:36 24° E 21:14:56 10° NE
Helios 1A 2.7 21:08:15 10° NNE 21:12:11 68° ESE 21:13:02 50° SSE
SL-16 R/B 2.2 21:06:47 10° NNW 21:12:28 74° WSW 21:14:58 35° SSE
Nadezhda 4 Rocket 3.9 21:09:09 10° N 21:15:18 88° E 21:18:18 33° S
Cosmos 1606 Rocket 3.6 21:15:48 45° SSE 21:16:55 64° E 21:21:13 10° NNE
Cosmos 1805 2.8 21:14:31 10° NNW 21:17:46 67° W 21:18:02 63° SW
Cosmos 1486 Rocket 3.9 21:13:15 10° NNW 21:18:32 87° ENE 21:20:37 38° SSE
USA 290 4.3 21:24:21 17° ENE 21:24:21 17° ENE 21:25:37 10° NE
Cosmos 2333 Rocket 2.3 21:19:42 10° NW 21:25:22 67° WSW 21:27:39 36° S
CSL-04 DEB 3.9 21:26:07 67° SSE 21:26:33 86° ENE 21:30:10 10° NNW
Cosmos 2098 Rocket 3.4 21:25:32 33° SSW 21:27:50 78° W 21:32:27 10° N
SeaSat 1 4.1 21:24:17 12° E 21:28:02 28° NE 21:32:09 10° NNW
Cosmos 1766 3.8 21:25:36 10° N 21:28:33 33° ENE 21:28:33 33° ENE
Cosmos 1726 Rocket 3.4 21:29:27 54° SE 21:30:04 62° E 21:34:05 10° NNE
Cosmos 2195 Rocket 4.4 21:27:07 10° N 21:33:25 84° E 21:36:10 36° SSE
Cosmos 1076 Rocket 3.4 21:29:48 10° N 21:34:06 86° E 21:35:03 54° SSE
Cosmos 1980 Rocket 4.5 21:32:31 10° WNW 21:35:02 13° W 21:37:33 10° WSW
CZ-2C R/B 4.1 21:34:56 17° ESE 21:37:53 27° ENE 21:42:15 10° N
Cosmos 2026 Rocket 4.0 21:33:32 10° N 21:39:57 80° E 21:42:46 36° SSE
NOSS 3-3 (A) 4.0 21:35:58 10° SW 21:41:16 70° NW 21:47:46 10° NE
Spot 4 3.8 21:44:25 46° SSE 21:45:49 76° ENE 21:50:36 10° NNW
DNEPR-1 R/B 4.3 21:41:34 10° NW 21:46:56 68° SW 21:49:21 38° SSE
Aureole 1 Rocket 4.2 21:43:49 10° NNW 21:48:53 54° ENE 21:51:55 28° SE
Okean 1 3.0 21:49:59 65° WSW 21:50:17 70° WNW 21:53:52 10° N
Helios 1B rocket 2.7 21:51:51 41° WSW 21:52:01 41° W 21:55:22 10° NNW
SAR-Lupe-2 3.7 21:53:25 55° ENE 21:53:25 55° ENE 21:56:41 10° N
Cosmos 1975 4.2 21:50:24 10° NNE 21:53:27 24° ENE 21:54:01 23° E
Cosmos 2333 4.2 21:49:51 10° NNW 21:55:34 78° WSW 21:57:35 42° SSE
Cosmos 44 4.2 21:51:10 10° NW 21:56:28 51° NE 21:59:53 21° ESE
Cosmos 1464 Rocket 4.4 21:53:23 25° SW 21:56:57 57° WNW 22:03:03 10° N
Cosmos 2360 Rocket 2.4 21:56:54 10° NW 22:02:30 60° WSW 22:04:14 42° S
Cosmos 1271 Rocket 4.0 22:04:45 25° ENE 22:04:45 25° ENE 22:07:09 10° NE
Meteor 1-26 Rocket 4.1 22:03:06 44° S 22:04:56 81° E 22:10:35 10° NNE
RESURS DK-1 4.1 22:03:28 10° NNW 22:06:53 26° NE 22:09:02 17° E
ALOS 2 2.5 22:06:32 58° S 22:07:21 83° WSW 22:11:47 10° NNW
ARIANE 5 R/B 2.7 22:07:11 54° SSW 22:08:01 68° WSW 22:12:29 10° NNW
NOSS 3-3 (C) 4.4 22:03:57 10° WSW 22:09:19 59° NW 22:15:53 10° NE
Cosmos 1953 Rocket 3.9 22:05:44 10° NNW 22:10:00 53° W 22:10:47 46° SW
ISS -1.2 22:07:48 10° W 22:08:15 13° W 22:08:15 13° W
GP-B 4.2 22:07:18 10° NNE 22:11:15 32° E 22:12:04 30° ESE
Cosmos 2058 Rocket 2.9 22:11:46 62° S 22:12:28 82° E 22:16:50 10° NNE
BREEZE-M R/B 4.0 22:11:01 10° W 22:18:15 75° SSW 22:24:10 10° ESE
Cosmos 1092 Rocket 4.1 22:12:23 10° NNW 22:18:29 67° W 22:20:51 38° SSW
CZ-2C R/B 3.8 22:14:30 10° N 22:18:54 67° WNW 22:20:05 46° SW
Helios 1B 4.4 22:15:00 10° NNE 22:19:16 74° ESE 22:19:49 63° SSE
Cosmos 2219 Rocket 2.2 22:14:28 10° NW 22:20:06 68° WSW 22:21:47 45° S
NOSS 3-4 (A) 4.1 22:16:42 10° NW 22:23:12 52° SW 22:26:00 36° S
NOSS 3-4 (C) 4.1 22:17:18 10° NW 22:23:50 53° SW 22:26:40 36° S
Cosmos 540 Rocket 3.3 22:23:21 48° SSW 22:24:51 86° ESE 22:30:02 10° NNE
PSLV R/B 3.4 22:20:52 10° NNE 22:25:06 84° ESE 22:25:44 64° S
Meteor 1-14 Rocket 4.2 22:19:54 10° N 22:25:31 72° ENE 22:27:27 41° SSE
Cosmos 1898 Rocket 3.9 22:20:59 10° NNW 22:26:06 57° ENE 22:28:15 33° SE
Cosmos 1461 3.1 22:26:32 43° W 22:27:23 54° NW 22:31:01 10° NE
Cosmos 2322 Rocket 3.0 22:24:39 10° NW 22:29:46 36° WSW 22:31:03 32° SW
MetOp-A 3.8 22:29:01 49° SSE 22:30:24 88° ENE 22:35:17 10° NNW
Cosmos 2082 Rocket 4.4 22:28:33 10° W 22:33:04 23° NW 22:37:36 10° NNE
SL-08 ROCKET BODY 4.4 22:29:58 10° NNW 22:36:08 80° W 22:38:25 41° S
USA 234 3.2 22:30:12 10° ENE 22:36:48 85° SSE 22:42:49 13° WSW
Cosmos 1707 3.6 22:38:21 31° NW 22:38:21 31° NW 22:40:27 10° N
Cosmos 1536 3.3 22:34:40 10° NNW 22:38:06 42° W 22:38:06 42° W
Meteor 2-9 Rocket 4.0 22:34:24 10° NNW 22:39:47 85° ENE 22:41:29 46° SSE
ACS3 Solar Sail 3.1 22:36:31 10° NNE 22:41:36 28° E 22:44:07 21° SE
COSMOS 2428 2.9 22:38:03 10° NNW 22:43:47 71° ENE 22:46:33 31° SE
Cosmos 2237 Rocket 3.4 22:41:53 10° NNW 22:47:13 39° NE 22:52:25 10° ESE
Cosmos 1763 Rocket 3.9 22:45:39 33° SW 22:47:53 60° WNW 22:53:08 10° NNE
TSX-5 3.7 22:44:48 10° NNW 22:47:24 58° N 22:47:24 58° N
Cosmos-2242 3.9 22:47:28 33° WSW 22:48:25 37° WNW 22:52:17 10° N
CZ-2C R/B 3.2 22:44:16 10° NNE 22:49:57 80° ESE 22:51:56 43° S
ARGOS Delta rocket 4.4 22:49:26 10° N 22:54:16 54° WNW 22:56:07 35° SW
SL-16 R/B 4.2 22:52:50 10° WNW 22:55:33 14° W 22:56:47 13° WSW
USA 290 3.8 22:56:48 26° WNW 22:57:06 27° NW 22:59:52 10° N
CZ-4C R/B 4.1 22:55:03 10° NNE 22:57:47 32° E 22:57:47 32° E
CZ-4C R/B 4.5 22:55:56 10° WNW 23:00:23 26° N 23:05:54 10° NE
Cosmos 1634 Rocket 4.5 22:57:50 30° SW 23:00:39 51° WNW 23:06:42 10° N
Cosmos 1238 Rocket 4.0 23:01:17 27° E 23:01:41 28° E 23:05:05 10° NNE
Cosmos 1766 Rocket 4.4 22:58:15 10° N 23:02:20 41° ENE 23:03:43 31° ESE
Cosmos 2227 Rocket 4.4 23:00:21 10° ESE 23:02:21 12° E 23:04:20 10° ENE
Cosmos 2279 Rocket 4.1 23:01:48 36° SSW 23:04:25 66° WNW 23:10:40 10° N
Cosmos 1470 3.4 23:01:36 10° NNW 23:04:12 36° WNW 23:04:12 36° WNW
SeaSat 1 2.4 23:03:53 50° S 23:05:04 69° WSW 23:09:59 10° NW
Cosmos 2333 Rocket 4.3 23:06:22 10° WNW 23:08:34 12° W 23:09:39 12° WSW
Intercosmos 24 3.9 23:04:01 10° N 23:08:34 71° ENE 23:09:12 57° SE
Cosmos 2221 2.4 23:09:57 59° SW 23:10:32 69° WNW 23:14:42 10° N
Cosmos 1842 4.1 23:13:51 30° WNW 23:13:51 30° WNW 23:16:31 10° N
Cosmos 841 Rocket 3.5 23:12:28 46° S 23:13:51 67° ESE 23:19:04 10° NNE
CZ-2C R/B 2.8 23:16:22 43° SSW 23:17:49 57° W 23:23:00 10° NNW
Alouette 2 Rocket 3.9 23:15:11 10° N 23:18:42 50° ENE 23:19:47 37° ESE
Meteor 1-19 Rocket 4.3 23:17:12 41° SSW 23:19:18 78° WNW 23:25:13 10° N
BREEZE-M DEB (TANK) 3.5 23:13:42 10° W 23:19:39 54° SSW 23:24:59 10° ESE
NOSS 0 Rocket 3.8 23:18:49 10° NNW 23:25:02 80° WSW 23:28:04 32° SSE
Cosmos 1975 3.8 23:25:11 10° NNW 23:28:16 30° W 23:28:16 30° W
DELTA 2 DEB (DPAF) 3.6 23:25:06 10° NNE 23:28:41 65° ESE 23:28:50 64° ESE
Cosmos 1655 Rocket 4.1 23:23:22 10° N 23:29:37 75° ENE 23:32:52 30° SSE
Cosmos 2266 Rocket 4.1 23:26:19 10° NNW 23:32:14 58° W 23:34:28 37° SSW
Cosmos 2322 4.0 23:28:15 10° NW 23:33:45 50° WSW 23:35:16 40° SSW
Cosmos 1812 Rocket 3.9 23:34:01 44° WSW 23:35:00 54° WNW 23:39:21 10° N
Cosmos 2297 Rocket 2.7 23:33:58 34° SSE 23:35:54 46° ESE 23:41:18 10° NE
Cosmos 44 4.0 23:32:33 10° NW 23:37:33 39° WSW 23:38:07 38° SW
Cosmos 858 Rocket 4.4 23:32:29 10° NNW 23:37:41 77° WSW 23:39:32 40° S
Cosmos 1271 Rocket 4.0 23:38:07 24° WNW 23:38:26 24° WNW 23:41:18 10° NNW
Meteor 2-20 Rocket 4.2 23:40:53 37° S 23:43:18 84° E 23:49:03 10° NNE
RESURS DK-1 2.7 23:40:36 10° NW 23:44:13 44° WSW 23:44:13 44° WSW
Cosmos 1937 Rocket 3.7 23:39:32 10° NNW 23:44:30 49° WSW 23:45:41 41° SSW
Cosmos 2360 Rocket 4.3 23:44:17 10° W 23:45:17 10° W 23:45:57 10° W
Lacrosse 4 Rocket 3.0 23:46:25 20° ESE 23:47:01 20° ESE 23:50:02 10° ENE
Meteor 1-11 Rocket 4.2 23:42:19 10° NNW 23:47:44 45° W 23:49:32 34° SW
ISS -1.3 23:50:53 13° ESE 23:50:53 13° ESE 23:51:21 10° ESE
GP-B 4.2 23:44:23 10° NNW 23:48:14 31° WNW 23:49:14 28° WSW
NOSS 8 (H) 4.2 23:47:15 10° NW 23:49:51 70° NNW 23:49:51 70° NNW
Cosmos 1066 Rocket 4.4 23:49:22 32° SSE 23:51:44 59° E 23:57:06 10° NNE
NOSS 8 (E) 4.4 23:53:28 10° NW 23:56:23 64° NE 23:57:11 42° ESE
